Torna al catalogo

SCOUT B R/B

AttivoUNKNOWN
NORAD 2206·ROCKET BODY·🇺🇸 United States

Lanciato Jun 10, 1966 da Wallops Flight Facility

Loading…

Prossimi Passaggi (prossime 24 ore)

TLE

AggiornatoSource: Space-Track

Epoca: Sep 14, 2026, 01:26 UTC

1 02206U 66052B   26257.06005115 -.00000074  00000-0 -78368-4 0  9998
2 02206  40.8691 177.5859 2210741 286.9920  50.1332 10.14645113211807

Traccia SCOUT B R/B in tempo reale con AllMySat

Download on the App Store